Theta_e
365 365 364 362 363 357 348 341 318 324 319 313 316 319 316 330 331 327 326 331 326 336 340 340 338 338 331 327 332 336 336 322 325 307 302 327 349 349 347 350 355 358 360 362 364 365 366 370 369 368 368 369 369 369 369 368 368 368 367 366 367 366 364 364 364 364 364 364 364 364 365 365 364 364 364 364 364 363 363 363 363 363 362 361 361 361 362 362 361 362 362 363 363 364 364 364 364
364 364 364 364 355 348 335 340 320 317 317 313 315 323 323 329 328 325 324 328 332 333 337 336 338 340 340 339 338 339 334 339 341 334 340 346 348 347 350 353 355 357 360 363 364 365 366 368 369 368 368 368 368 369 369 369 368 367 367 367 366 364 365 366 366 365 365 364 364 364 364 364 364 364 364 364 363 363 362 363 361 362 362 362 361 361 361 361 361 362 361 362 361 363 363 364 364
364 363 358 361 355 344 341 337 315 313 310 307 314 320 330 324 325 327 329 332 335 337 337 337 339 339 337 339 332 332 325 343 341 342 340 346 341 344 350 353 356 358 362 364 365 365 366 367 369 368 368 368 368 368 369 369 368 366 366 366 365 365 365 365 364 362 362 362 363 363 364 365 365 364 364 363 362 362 362 362 362 362 362 361 361 360 361 361 361 361 361 361 361 363 364 366 364
363 363 352 351 336 343 327 325 319 313 310 311 314 324 324 324 325 330 332 335 336 336 336 335 334 341 337 331 334 339 337 338 343 340 337 341 341 348 351 354 357 359 362 364 365 365 365 369 370 369 369 368 367 368 369 368 367 367 366 366 365 364 364 364 363 363 363 363 364 364 364 365 365 365 364 363 363 363 363 363 362 362 362 362 361 360 361 361 362 362 362 362 363 365 365 366 368
361 362 361 349 334 327 325 320 319 316 312 315 312 326 326 327 329 330 332 335 335 336 336 336 334 342 343 337 341 330 331 341 341 345 341 344 349 349 351 354 356 358 359 363 364 365 365 370 370 369 369 367 368 369 368 368 367 367 366 366 365 365 365 365 364 364 364 364 365 365 365 365 365 366 365 365 364 364 364 364 364 363 363 363 362 362 361 361 361 362 362 362 364 365 366 367 368
357 355 358 351 332 339 330 318 316 316 322 326 320 325 327 330 329 333 332 336 337 338 338 337 333 333 335 339 343 334 340 331 341 342 342 343 348 349 351 353 354 355 359 362 364 364 365 370 370 369 368 368 368 368 368 367 367 366 366 366 365 364 365 364 364 364 365 365 364 364 364 365 366 367 366 366 365 365 365 365 364 363 363 363 362 361 361 361 361 361 362 363 364 365 366 367 368
352 349 346 342 339 341 320 317 317 318 323 330 326 326 328 331 332 333 332 333 338 338 340 335 338 336 331 339 340 343 348 345 342 341 344 346 346 348 350 350 351 353 359 361 363 364 366 371 370 368 368 369 368 367 367 367 367 366 366 366 365 365 365 364 364 364 365 364 364 364 364 364 368 368 367 367 367 366 365 363 364 363 363 363 362 361 361 361 362 361 363 364 365 366 366 368 369
361 342 339 327 323 326 317 317 319 322 324 333 332 329 333 332 333 332 331 331 330 331 335 337 342 333 332 345 330 345 345 351 343 343 345 344 344 346 347 347 349 355 359 361 363 364 369 371 370 369 369 368 368 368 367 367 367 366 366 365 365 364 365 364 364 364 365 364 365 364 364 364 365 366 366 366 365 364 364 362 362 362 363 362 362 362 362 363 363 364 364 365 366 367 368 369 369
351 347 347 328 318 322 319 318 319 329 330 332 330 334 336 335 336 334 332 335 334 335 334 336 336 328 332 334 333 340 343 343 341 345 343 343 344 345 345 347 351 356 359 361 363 365 366 370 370 369 368 368 368 368 367 367 366 366 365 365 365 363 364 364 364 364 364 364 365 365 365 366 368 367 366 365 364 363 363 364 363 363 363 363 363 363 363 363 363 365 366 366 367 367 368 368 369
345 341 326 324 323 313 318 318 317 324 329 334 332 332 334 334 332 335 332 333 332 334 336 339 339 331 335 330 334 340 340 341 341 341 343 344 344 344 345 351 356 357 359 361 363 365 366 369 369 369 368 368 367 367 366 366 366 365 364 364 365 364 364 364 364 364 364 365 365 364 364 365 365 366 366 366 365 364 364 364 364 363 363 363 363 363 364 364 365 365 366 367 367 368 368 368 369
331 341 339 319 314 312 311 315 321 325 329 333 331 334 336 337 335 334 333 334 337 335 336 338 333 332 334 334 334 345 344 341 341 340 344 344 344 344 349 354 358 360 359 361 363 365 365 366 369 369 368 368 367 367 367 366 365 365 364 364 364 363 364 363 363 364 364 364 364 364 364 364 365 366 365 364 364 364 363 364 364 364 363 364 363 364 364 365 365 365 366 366 367 368 369 369 370
328 327 327 315 314 312 317 318 320 323 327 329 329 336 338 338 336 331 333 330 334 334 334 338 331 337 331 331 332 341 342 342 343 344 344 344 344 348 353 356 359 361 361 362 364 364 364 365 366 367 367 367 367 367 366 365 364 364 364 364 364 364 364 364 364 364 364 363 364 364 363 364 365 365 364 365 365 364 364 365 365 364 364 364 364 365 365 366 365 366 367 366 367 368 369 370 371
331 329 321 315 316 318 320 318 319 323 324 328 331 335 341 336 334 333 336 336 334 332 332 340 339 339 327 331 337 342 340 343 346 346 345 345 347 351 355 358 360 361 362 363 363 363 363 364 363 363 365 367 367 366 366 365 364 363 364 363 363 363 363 364 364 364 364 364 364 364 364 364 365 365 365 365 366 364 364 365 365 365 364 365 364 365 366 366 366 367 367 368 368 369 370 371 372
333 331 323 315 322 320 320 320 320 319 320 329 334 337 339 334 334 335 338 332 333 334 338 341 340 338 332 335 335 336 339 345 348 348 348 348 349 352 357 358 360 360 362 362 361 362 362 362 362 362 363 362 362 364 366 365 364 364 364 364 364 363 364 364 364 365 364 364 364 365 365 365 365 365 365 366 365 364 365 365 366 366 366 364 364 365 367 367 367 368 368 369 370 370 371 372 373
333 337 325 319 318 320 320 316 319 319 320 330 333 335 334 335 337 336 337 333 333 341 342 345 342 336 327 331 330 335 340 345 348 349 350 350 350 353 357 359 360 360 360 361 362 362 361 361 360 361 361 360 360 360 360 362 365 365 364 363 364 364 363 365 365 364 365 364 365 365 365 366 365 366 366 365 364 365 365 366 366 368 368 366 366 366 367 368 369 369 370 369 370 371 373 373 373
340 333 324 317 314 316 318 319 322 319 321 330 334 338 335 335 339 337 339 343 336 342 342 336 343 340 337 335 336 340 344 346 348 349 349 348 350 353 356 357 358 358 359 360 361 361 360 359 359 360 360 359 359 359 359 360 364 365 365 365 365 365 363 364 365 365 366 366 366 366 366 363 365 363 367 365 365 366 367 367 367 367 368 367 367 367 368 369 370 370 371 372 372 373 374 375 374
344 334 320 315 313 317 318 320 321 314 326 330 333 336 333 330 338 341 344 341 335 337 340 341 338 344 339 341 342 344 346 348 349 348 348 348 349 350 354 355 356 356 357 358 359 359 360 359 359 359 359 359 359 359 358 357 361 363 362 364 364 365 364 365 365 365 365 365 365 365 365 362 359 360 362 363 369 367 368 369 369 369 370 370 369 369 370 370 370 371 373 373 374 374 375 376 375
332 322 318 313 315 317 322 325 327 328 326 328 331 334 333 330 334 339 339 337 338 338 339 340 342 342 344 345 345 346 347 346 346 345 345 345 347 347 349 352 353 352 354 355 358 358 359 359 358 358 358 358 359 359 359 358 360 362 356 358 360 361 363 364 363 359 366 359 365 363 360 361 360 357 359 368 366 369 369 371 371 371 371 371 372 372 372 373 373 374 374 375 376 376 377 372 370
325 323 318 315 319 325 333 332 335 333 329 332 333 335 333 331 336 338 334 336 336 332 335 337 338 341 343 344 344 344 345 345 345 344 344 344 344 345 347 350 352 353 353 354 355 357 358 358 359 358 358 358 358 358 358 358 357 356 356 357 360 362 364 363 359 363 357 358 358 358 361 359 360 361 363 366 369 372 370 373 373 373 373 373 374 374 375 375 375 376 377 377 378 379 375 367 365
333 325 317 318 327 330 337 338 336 339 335 332 332 336 334 335 337 336 334 333 334 330 330 335 336 336 339 341 343 343 343 343 344 344 343 344 344 346 347 349 350 352 353 353 354 357 358 357 358 358 358 358 358 357 357 357 356 355 355 355 357 358 358 360 357 357 358 358 359 358 359 360 361 361 370 372 372 367 368 373 372 373 374 375 376 375 376 376 377 376 375 375 379 375 367 363 362
331 325 318 322 330 327 332 340 341 340 338 335 333 334 333 336 337 338 336 330 332 335 337 337 336 337 338 341 341 342 342 342 343 344 344 344 345 348 349 350 350 352 354 355 354 355 357 358 358 358 359 358 358 357 357 356 356 355 355 355 356 356 356 356 356 355 357 358 359 360 360 361 362 361 360 361 361 361 360 360 359 357 360 362 372 366 364 364 365 360 357 363 365 367 365 361 361
332 325 328 331 331 330 335 338 341 338 338 334 335 333 334 344 342 341 333 326 325 332 339 340 341 340 340 340 341 342 341 341 342 343 344 344 344 346 349 351 353 354 355 353 353 355 356 358 358 358 359 358 358 357 356 357 357 354 354 355 355 355 355 355 354 355 356 357 359 361 362 361 361 361 358 357 359 360 359 357 356 355 355 361 365 359 354 354 352 350 350 353 355 359 361 360 356
320 326 331 334 334 331 338 341 339 339 337 334 333 338 340 336 337 342 337 333 335 342 343 342 344 343 343 343 342 340 340 341 341 343 344 344 344 346 348 350 351 351 352 352 354 355 356 357 357 358 358 357 357 358 357 357 356 355 355 355 354 354 355 354 354 354 355 357 358 361 362 360 359 358 357 357 357 359 357 358 356 356 355 353 355 353 352 351 349 346 346 347 348 355 360 359 357
326 321 331 332 337 335 338 338 339 337 337 335 338 341 337 337 325 339 335 341 344 347 344 343 345 345 345 342 342 341 341 341 341 343 345 345 345 346 348 349 351 352 351 351 353 353 356 356 357 357 357 357 357 358 356 356 356 355 355 358 357 356 355 354 354 354 355 356 358 359 365 359 357 356 357 355 356 358 359 358 357 355 354 353 352 353 351 348 348 348 348 348 346 343 345 345 350
327 326 333 336 340 341 338 338 336 339 338 341 340 335 335 336 334 336 334 338 347 346 343 343 345 344 344 342 341 341 341 342 342 343 345 346 347 347 348 349 350 351 349 350 351 349 355 356 356 355 356 356 357 357 356 357 356 355 355 355 355 359 356 353 354 355 355 356 358 360 362 358 356 356 355 355 354 356 357 358 356 356 356 354 354 352 351 349 348 348 348 348 347 342 340 341 346
329 329 335 337 338 340 338 337 336 337 338 340 336 334 337 338 342 330 334 341 346 342 341 343 344 343 342 342 342 342 342 342 342 342 343 345 346 346 346 347 348 348 350 350 350 349 352 354 354 354 355 356 357 356 356 356 356 353 354 354 355 359 355 354 354 354 354 354 356 359 360 359 356 356 356 355 354 354 355 357 357 356 353 353 354 353 352 349 348 347 350 349 348 346 346 345 348
330 331 335 334 336 338 339 334 334 337 338 338 332 332 335 341 335 322 336 345 348 341 340 341 341 341 343 343 343 344 343 342 342 342 344 344 345 344 345 347 346 348 349 350 350 350 351 352 352 353 354 357 357 356 355 356 356 354 354 354 354 355 356 356 355 354 354 354 356 358 358 361 359 359 356 354 353 353 354 355 355 355 354 354 353 351 351 350 350 351 350 348 347 346 345 345 349
330 332 334 334 337 337 338 335 333 336 335 337 334 331 337 339 333 325 335 344 343 340 342 340 339 340 341 343 344 344 344 344 344 343 342 342 342 344 344 344 345 346 345 348 350 351 350 350 352 353 354 357 357 356 356 356 356 355 354 354 353 354 356 355 354 353 355 354 356 357 357 359 363 359 358 356 354 353 354 355 355 354 353 353 353 352 349 349 352 351 349 349 348 347 345 346 345
331 333 325 329 332 329 335 333 336 334 332 338 337 330 327 331 328 333 340 341 342 340 341 340 339 339 340 342 343 343 344 344 344 342 343 344 346 346 344 345 345 344 344 349 350 350 349 350 351 352 354 356 356 355 354 355 356 355 354 353 352 354 353 354 353 352 351 354 356 356 358 360 363 359 358 358 362 354 354 353 352 354 352 352 352 352 353 352 349 348 348 350 348 348 348 347 344
333 331 325 323 323 320 329 338 338 331 335 338 335 312 315 327 333 337 340 338 339 338 337 339 339 339 339 340 341 341 343 344 343 343 344 345 346 347 345 345 346 344 343 347 349 349 350 352 353 352 353 354 355 354 353 353 354 354 353 353 354 353 351 351 352 352 352 354 357 357 359 361 362 360 358 357 356 355 354 353 352 352 351 353 354 353 349 348 347 347 348 349 354 352 347 345 341
321 326 323 316 312 311 325 334 335 328 337 337 333 311 311 321 332 337 338 339 337 334 335 336 338 337 338 340 340 340 343 343 344 345 346 347 347 348 347 345 345 345 343 345 346 348 350 351 352 351 353 353 355 353 353 352 353 353 351 350 352 352 351 350 350 352 353 354 359 359 360 361 363 361 359 356 355 354 354 352 352 351 352 352 351 350 351 351 350 350 351 348 346 344 344 345 345
322 315 308 313 308 307 322 336 333 325 332 338 329 314 314 320 328 337 337 338 335 333 334 336 337 336 339 339 341 342 343 343 345 349 347 347 348 347 348 346 345 345 343 343 346 348 348 350 352 350 351 352 354 353 352 352 352 352 351 355 349 352 351 351 350 352 353 354 358 359 361 362 363 361 359 358 355 355 353 352 351 352 353 353 352 351 354 352 351 349 348 346 343 343 344 341 343
319 310 309 309 309 308 318 326 334 331 331 334 327 311 315 317 326 336 339 337 335 333 334 336 337 337 339 339 340 341 342 343 343 344 347 347 347 347 348 347 346 345 343 344 345 347 348 348 352 350 349 350 352 353 352 351 352 351 350 350 351 351 351 351 352 352 352 353 356 357 360 361 362 360 359 359 356 355 354 352 352 352 352 352 351 351 352 354 351 351 349 351 348 343 343 341 341
309 314 307 311 309 310 311 321 331 332 330 324 330 322 320 318 326 335 338 337 334 333 333 334 337 337 339 339 340 340 340 339 338 342 343 345 346 347 348 351 347 346 344 345 346 347 347 348 350 350 349 349 351 352 351 351 351 351 350 350 352 352 353 353 353 354 351 352 353 355 358 360 362 360 359 359 357 356 354 354 352 351 351 349 348 350 350 350 351 352 349 349 349 347 344 343 342
304 307 306 303 310 315 312 313 320 330 329 323 325 325 325 326 326 332 336 337 333 332 332 333 335 336 338 340 339 340 339 338 339 342 344 345 346 349 347 347 347 346 345 344 346 347 347 347 349 349 350 349 350 350 350 350 351 350 350 350 349 353 354 354 354 353 352 351 351 353 357 359 362 360 359 359 358 356 355 354 354 353 353 353 352 350 350 352 353 352 349 346 348 348 346 345 344
307 310 305 300 299 303 311 318 325 329 325 322 322 319 322 325 323 329 333 335 332 332 333 334 335 335 337 339 339 339 339 339 342 343 347 346 347 347 347 346 346 346 345 344 345 346 345 345 348 348 349 350 350 349 350 349 348 348 347 348 347 352 353 354 354 353 353 351 352 353 355 358 359 360 358 358 358 358 356 355 354 354 352 352 350 350 349 348 350 351 351 353 351 351 351 348 346
305 304 305 302 301 301 310 319 323 330 324 322 322 322 321 322 323 327 329 333 332 331 332 333 333 334 336 337 338 338 339 339 342 344 345 346 347 348 347 346 345 344 343 343 343 344 344 344 346 345 347 349 349 348 348 347 345 345 347 346 346 350 352 353 353 352 352 352 352 352 354 357 357 359 360 358 357 360 358 355 354 353 354 354 349 347 348 349 352 356 355 353 355 348 345 346 345
305 302 300 299 301 299 308 316 323 329 322 319 322 322 321 321 323 325 329 329 329 329 331 331 332 334 336 337 336 337 339 345 346 344 344 344 346 347 347 346 347 342 342 342 342 343 343 343 343 344 346 347 348 348 349 348 347 346 347 347 347 350 351 351 351 351 351 352 351 351 354 356 356 357 361 358 359 357 357 356 355 354 354 354 354 354 352 363 358 354 353 348 351 348 345 345 346
302 302 300 298 299 303 305 313 323 326 322 310 315 319 321 323 323 324 327 327 329 331 333 332 331 332 334 336 336 336 337 340 342 342 343 342 343 345 345 345 345 344 343 344 344 343 341 341 341 343 345 347 347 348 350 348 348 348 350 349 349 349 353 354 353 353 353 351 350 350 353 355 356 357 359 361 358 357 357 356 355 354 353 356 355 353 354 354 353 353 352 350 348 349 347 349 346
301 300 299 296 301 299 296 303 321 324 319 310 310 315 314 312 317 323 327 327 328 330 334 334 333 333 334 335 337 337 336 338 339 340 340 341 342 343 344 344 344 344 344 344 344 344 342 343 341 343 345 347 347 348 352 350 350 350 352 352 351 350 350 353 352 352 351 351 349 351 354 355 357 357 359 360 359 358 357 355 355 354 354 355 353 351 351 351 351 352 353 352 350 344 342 341 348
300 301 298 298 299 300 300 301 317 321 321 317 308 302 302 308 315 318 323 327 329 329 333 334 334 335 336 337 338 339 337 336 337 339 339 340 341 342 342 343 344 343 343 343 344 344 344 342 343 345 346 347 348 350 351 351 353 352 353 353 355 353 354 352 349 349 349 350 352 352 355 355 357 357 358 359 360 357 357 356 355 355 354 353 354 352 351 353 354 353 352 351 348 344 341 343 343
296 301 303 302 302 303 302 309 313 308 305 309 308 298 294 306 313 317 320 321 322 327 326 329 332 332 334 334 335 338 339 338 337 338 339 340 341 342 342 343 343 343 343 344 345 345 344 344 345 346 349 348 349 350 352 352 353 351 350 348 347 346 345 346 345 346 347 347 349 354 356 356 357 357 357 358 359 359 356 356 356 355 354 355 355 353 353 354 353 352 351 351 349 348 345 342 341
297 298 305 303 304 303 301 301 299 295 294 300 304 295 290 305 311 315 318 319 320 323 324 325 331 332 333 334 335 336 337 336 337 338 339 339 340 341 342 342 343 343 343 345 344 345 345 345 345 347 349 349 350 352 353 354 352 351 350 349 348 347 345 346 347 348 348 349 348 353 354 357 357 356 356 357 357 359 357 356 356 355 355 353 358 354 352 352 352 353 354 350 348 350 347 342 343
296 302 304 304 303 302 302 302 300 296 304 304 304 300 299 301 307 315 318 317 318 319 320 323 330 332 333 334 335 336 337 337 337 338 340 341 341 341 341 342 343 343 345 345 344 345 345 345 345 347 349 352 351 353 353 354 352 351 350 349 350 348 347 347 347 347 348 349 345 351 353 356 356 356 355 356 356 358 358 356 356 355 354 353 357 356 352 352 353 354 355 353 351 351 349 346 344
300 304 305 304 304 303 302 301 298 299 298 293 298 303 296 299 305 315 318 314 315 316 318 320 329 333 333 334 336 336 338 339 339 338 341 341 341 342 342 342 344 344 345 344 344 344 345 346 347 347 348 352 351 354 353 353 354 352 351 350 349 350 349 349 351 351 348 350 346 349 352 354 355 355 355 355 355 356 360 357 356 355 354 353 359 357 354 354 352 352 351 353 353 352 352 349 346
303 305 306 306 305 304 303 299 299 299 295 291 297 302 294 294 302 308 314 315 313 315 318 320 327 333 334 335 336 337 338 339 339 339 341 342 342 342 343 344 344 344 345 346 346 348 346 347 347 347 347 351 352 353 354 353 353 354 350 350 348 348 350 350 350 350 350 351 346 346 349 351 353 353 353 353 354 354 356 358 356 355 355 355 360 356 355 353 352 352 352 352 353 350 351 355 351
306 306 304 301 302 300 301 300 299 295 292 292 300 303 298 294 304 305 310 312 315 317 319 322 325 329 333 335 336 337 337 339 339 339 340 342 343 343 344 343 343 344 346 346 346 346 347 346 347 346 347 350 352 353 353 353 353 353 351 350 349 348 348 348 348 348 348 347 348 348 348 349 351 352 353 353 353 354 355 358 357 356 357 360 361 357 355 354 353 352 353 354 355 353 350 352 354
307 302 299 297 297 299 298 296 296 291 289 294 302 309 309 298 302 311 314 318 318 320 318 321 322 324 326 329 334 336 337 339 340 340 340 341 341 341 343 343 343 343 345 346 346 345 347 348 347 346 348 349 351 353 353 353 353 352 351 350 349 349 348 348 348 347 347 346 346 346 349 349 350 352 352 353 352 353 355 357 359 357 358 357 358 357 356 355 354 353 352 352 352 352 352 354 349
300 299 297 292 289 291 288 291 289 291 290 297 301 309 306 304 308 313 318 319 320 320 321 320 322 325 327 328 329 330 330 333 339 339 340 340 340 339 340 341 342 342 342 345 345 345 345 348 348 347 347 350 350 352 353 353 352 352 351 350 350 351 350 349 348 348 348 347 345 346 350 348 349 350 351 352 352 353 354 355 356 355 356 357 357 356 356 355 354 351 350 350 351 351 351 352 350
301 298 294 290 286 286 285 288 291 288 295 300 300 311 302 307 311 316 319 321 323 325 326 327 327 327 328 331 332 334 335 335 332 335 338 340 340 340 340 340 341 341 343 344 345 345 344 347 349 348 348 350 352 351 352 352 352 353 352 351 351 352 351 352 350 349 349 348 346 346 350 350 349 350 351 352 353 355 355 356 357 356 355 356 357 355 355 355 354 351 350 350 350 351 352 351 350
302 302 298 294 291 291 288 288 288 290 292 296 304 298 295 301 305 316 320 323 325 327 329 330 330 329 329 330 332 333 334 334 336 337 336 337 341 341 340 340 340 341 343 344 344 345 345 344 349 350 349 350 353 352 352 352 352 353 353 353 353 353 352 353 353 353 351 349 348 347 349 351 351 351 352 353 355 355 355 355 356 356 355 355 356 355 356 354 354 355 358 354 355 354 352 353 351
300 303 300 297 296 296 290 291 290 292 292 292 298 299 305 306 314 320 321 322 324 326 327 329 329 330 330 329 329 330 333 334 335 336 337 339 339 342 342 341 341 342 343 344 344 345 344 345 348 350 350 351 352 355 353 353 353 354 354 354 354 355 356 354 354 357 355 352 350 348 348 350 352 352 353 354 355 355 354 354 356 356 355 355 355 355 354 354 353 351 349 353 348 355 351 353 352
300 302 297 300 301 301 295 301 303 299 291 293 304 303 310 313 314 317 319 320 321 323 325 327 327 329 329 328 328 329 331 333 334 335 336 337 338 339 343 342 342 342 343 343 344 345 345 345 347 350 351 352 351 355 354 354 354 353 354 355 355 356 356 355 354 354 355 354 351 349 348 349 350 352 353 355 354 355 355 354 354 356 355 355 354 356 355 353 351 350 350 347 347 349 357 353 354
300 298 299 304 305 302 297 295 291 290 290 291 300 298 301 303 299 315 316 317 318 320 322 324 326 328 327 327 327 327 329 332 334 335 336 337 338 339 342 344 343 342 343 344 344 345 347 347 348 350 351 351 352 355 356 355 354 354 354 354 355 356 357 356 356 355 355 355 354 351 349 348 348 350 352 354 354 354 354 360 353 354 354 355 354 355 356 353 353 351 350 349 348 349 356 357 356
304 301 306 301 293 292 295 294 288 288 287 288 294 302 303 303 303 310 312 314 316 318 320 321 323 327 327 327 327 328 330 331 332 332 334 336 338 339 340 342 343 342 343 344 344 345 347 348 349 351 351 353 353 354 355 356 357 356 356 356 356 356 357 357 357 357 356 355 354 353 351 350 350 349 351 350 351 353 353 354 353 353 353 354 353 353 354 352 352 351 353 352 352 351 352 352 352
308 303 300 305 299 296 293 294 294 291 287 290 290 299 296 308 307 312 312 315 316 317 319 320 322 327 327 326 327 328 329 330 331 332 334 336 338 339 341 340 341 342 341 342 344 344 345 349 354 351 352 353 353 352 353 355 357 356 356 357 357 357 358 358 358 356 355 354 354 355 353 351 350 350 349 350 350 351 353 352 353 353 353 353 353 353 353 352 352 351 354 356 356 354 352 350 352
302 301 296 297 300 302 297 296 296 292 289 287 287 287 296 304 314 315 314 315 317 319 320 320 322 325 327 327 327 328 329 330 331 333 334 336 337 338 341 342 342 343 342 341 343 344 345 351 355 354 353 352 352 352 352 353 356 357 357 356 357 357 357 357 357 355 354 353 352 355 354 353 351 348 347 348 348 349 351 353 352 352 352 352 353 352 353 352 353 354 355 354 355 355 353 353 354
303 301 298 299 294 295 290 290 296 299 291 288 288 287 296 308 321 317 316 316 318 321 322 321 322 324 324 327 328 328 328 330 331 333 335 336 337 338 340 342 344 342 344 342 344 346 348 349 353 354 353 352 351 352 352 352 354 355 354 356 357 357 356 355 354 353 353 352 351 351 351 351 349 349 347 346 346 349 351 352 351 351 351 352 353 353 354 353 353 355 355 356 355 353 352 352 351
Wind_Speed
10 7 5 4 3 3 3 1 0 1 1 1 1 1 2 0 1 1 2 3 5 1 1 2 7 4 2 3 6 5 4 6 2 6 4 2 10 14 10 13 14 12 11 9 8 9 10 13 15 15 16 15 15 15 14 14 13 13 13 14 13 14 14 13 12 12 13 12 12 12 12 12 12 11 11 10 9 8 8 8 7 7 7 6 5 5 5 4 4 3 3 3 2 1 1 1 1
5 5 5 3 3 2 1 2 2 1 1 2 1 2 3 2 1 2 7 5 1 4 2 4 4 8 11 10 6 3 5 4 1 3 2 7 13 10 13 15 16 14 10 8 8 8 8 11 15 15 15 15 15 15 14 13 13 13 13 13 13 14 14 13 13 12 12 12 12 12 12 11 11 10 10 10 9 8 8 7 7 7 7 6 5 4 4 4 3 3 2 2 1 1 2 2 2
5 6 4 3 2 1 1 1 2 1 3 2 3 0 2 2 2 2 4 4 4 5 5 7 7 4 6 3 3 2 2 4 9 6 7 10 15 9 14 15 15 13 12 8 8 8 7 10 15 15 15 15 15 15 14 14 14 13 12 12 13 14 14 13 13 12 12 11 11 11 11 11 10 10 10 10 9 8 8 7 7 6 5 5 4 3 3 3 2 1 1 0 1 2 2 4 4
5 0 5 2 1 0 1 1 2 2 2 2 3 1 0 2 3 3 5 4 6 6 5 4 3 3 5 5 4 7 3 2 3 14 8 11 8 14 15 16 14 11 10 8 8 8 7 11 16 16 14 15 16 15 14 14 14 13 13 13 13 13 13 13 12 12 11 11 11 11 10 10 9 9 9 9 9 8 7 7 6 6 5 4 3 4 4 2 2 1 0 1 2 3 4 4 5
4 1 2 1 1 1 1 1 2 1 2 1 1 4 2 3 8 6 3 8 6 4 2 3 3 3 3 6 2 2 4 5 7 2 9 6 11 14 15 15 13 12 10 9 9 8 8 17 17 16 15 15 15 15 15 14 13 13 13 13 13 13 13 13 13 12 11 11 11 11 10 10 9 9 9 9 8 8 7 6 6 5 4 3 2 0 1 1 0 0 1 2 3 5 5 5 5
4 3 2 1 1 2 1 3 3 6 2 1 1 2 2 3 6 10 8 7 5 4 6 3 3 4 3 2 1 2 10 9 6 4 11 9 17 17 16 14 13 11 11 9 9 8 8 19 18 17 16 14 15 15 15 14 14 13 13 13 13 13 13 13 13 12 12 11 11 11 10 9 9 9 9 8 8 7 6 5 4 4 4 3 2 2 1 1 1 2 2 4 5 6 6 6 6
2 2 1 1 0 1 3 3 3 3 0 2 1 1 3 2 2 10 6 4 2 7 4 7 9 8 6 2 4 2 1 5 7 8 5 16 17 18 16 14 13 12 12 10 9 8 10 19 18 17 16 15 15 15 14 14 14 13 13 13 13 13 13 13 13 12 11 11 10 10 9 8 10 9 8 8 7 6 5 4 3 3 2 2 2 2 2 2 2 2 3 4 5 6 7 7 7
1 0 1 2 1 1 3 3 4 1 1 1 1 2 1 2 3 5 5 5 7 5 7 7 2 6 2 3 4 2 10 2 8 11 14 16 18 17 15 14 13 12 12 10 9 8 14 20 19 17 17 17 16 15 15 14 14 13 13 13 13 13 13 13 13 12 11 11 10 9 9 8 7 7 7 6 5 5 4 3 3 3 3 3 3 3 3 3 3 4 4 5 7 7 7 7 7
1 1 1 1 2 2 3 3 2 1 4 3 2 2 4 3 1 5 8 3 7 8 7 8 4 6 1 6 3 5 5 12 13 16 16 17 18 17 12 14 14 12 11 10 9 9 10 18 19 19 17 16 16 15 15 14 14 13 13 13 13 13 13 13 12 12 11 11 10 9 9 8 7 7 6 6 5 4 4 3 3 3 3 3 4 3 4 4 4 5 5 7 7 8 7 7 7
1 1 2 1 1 3 0 1 4 2 2 3 2 2 4 5 4 3 4 8 7 9 6 2 1 8 4 8 7 3 7 15 17 15 15 16 17 15 14 14 14 15 12 10 9 9 8 17 20 19 18 17 16 15 15 14 14 14 13 13 13 13 12 13 12 12 11 10 10 9 8 8 8 7 6 5 5 4 4 4 4 3 4 4 5 5 5 5 6 5 7 7 8 8 8 8 7
2 1 1 3 5 3 4 3 3 4 3 3 4 3 3 2 2 4 8 5 9 6 8 11 8 10 6 3 1 4 13 17 17 17 15 16 15 15 13 13 13 14 13 12 10 9 9 11 19 19 18 17 16 15 15 14 14 14 13 13 13 12 12 12 12 12 11 11 10 9 8 8 7 6 5 5 5 4 4 4 5 5 5 6 6 6 6 6 6 7 7 8 9 9 9 9 8
1 1 2 2 3 2 0 1 3 6 4 1 3 5 3 3 5 3 8 5 6 10 7 5 4 7 5 4 3 9 15 16 15 15 16 15 13 14 13 10 12 12 13 12 11 9 9 9 10 16 19 17 16 15 14 14 14 14 13 13 13 13 13 12 11 11 11 11 10 9 9 8 7 6 6 6 5 5 5 5 6 6 7 6 7 7 7 7 7 7 8 9 10 9 9 9 9
1 0 2 2 0 1 1 1 2 7 2 3 2 3 4 6 5 4 2 3 9 9 6 4 13 2 5 3 4 9 15 14 14 16 17 14 12 12 10 10 12 12 12 12 12 10 10 9 9 10 12 18 17 16 15 15 14 14 14 13 13 13 12 12 12 12 12 11 10 9 9 8 8 7 7 7 7 6 7 6 7 8 7 8 8 8 8 8 8 8 9 10 10 10 10 10 9
1 1 2 0 0 1 1 0 4 4 2 2 3 2 4 1 1 2 3 5 7 4 8 13 8 6 7 6 7 9 11 12 17 17 14 14 12 11 11 11 12 11 12 12 11 11 10 10 9 9 11 10 9 12 15 15 14 15 14 13 13 13 12 12 12 12 11 11 10 9 9 8 8 8 8 8 7 7 8 8 9 9 9 8 9 9 9 9 9 9 10 11 11 11 10 10 10
1 0 2 2 1 1 1 1 7 6 4 4 3 1 1 2 4 2 2 4 3 5 10 8 8 9 7 12 7 11 12 15 18 14 14 14 14 11 11 10 11 11 10 10 10 10 10 9 9 9 8 8 8 7 6 10 16 15 14 14 13 13 12 12 12 11 11 11 11 10 9 9 8 9 9 8 8 8 9 10 10 11 10 10 10 9 10 10 10 10 11 11 11 11 11 10 10
2 2 2 1 0 2 0 2 6 7 3 5 4 5 4 1 2 3 3 3 2 8 13 5 9 2 9 9 12 14 15 17 15 14 15 15 13 11 11 11 10 10 9 9 10 9 9 9 8 8 8 8 7 7 7 6 13 16 14 14 14 13 13 12 12 11 11 11 10 10 9 7 7 6 10 7 9 10 10 9 10 11 11 11 10 10 10 11 11 11 11 11 11 11 11 10 10
1 2 1 1 0 1 2 1 2 3 2 6 5 8 2 1 2 2 3 2 2 11 8 7 9 5 16 6 13 14 16 15 14 15 15 12 11 10 9 8 8 8 7 9 9 9 9 9 9 8 8 9 7 7 6 6 7 14 12 13 14 13 12 12 11 11 10 9 9 9 9 5 4 3 5 4 9 6 9 12 12 12 12 12 11 10 11 11 11 11 11 11 11 11 11 10 10
2 1 2 0 2 1 2 2 2 8 8 6 9 8 6 4 4 1 3 4 5 9 6 6 4 3 11 8 12 15 16 16 15 15 14 12 10 10 10 9 10 10 9 8 8 9 9 8 9 8 8 9 8 7 5 5 5 10 4 5 6 8 10 10 8 5 7 3 9 7 4 3 4 4 5 7 6 6 8 13 13 12 12 12 12 12 12 12 11 11 12 12 12 11 11 5 4
2 1 1 1 2 1 2 2 2 5 6 8 9 8 6 5 5 3 3 4 7 7 4 8 6 10 9 13 14 16 16 16 15 15 16 15 12 13 12 10 10 10 10 9 9 11 8 8 8 8 8 8 8 7 6 5 5 3 5 5 4 8 6 7 4 4 4 4 4 3 4 4 4 4 5 6 6 9 8 12 13 12 12 13 13 13 13 12 12 12 12 12 12 12 6 4 4
3 1 1 2 2 2 3 3 2 5 9 7 6 4 5 4 2 4 2 3 6 7 7 7 10 12 14 14 15 16 15 17 15 16 17 16 14 13 12 13 11 11 11 10 10 9 9 9 9 8 8 8 8 6 5 5 5 4 5 5 5 5 5 5 4 4 4 4 5 5 5 5 5 5 8 11 6 4 5 8 10 11 12 12 14 10 10 10 11 10 11 12 9 5 5 4 3
2 2 2 2 2 2 2 3 2 4 7 5 4 3 4 5 5 3 3 3 2 3 5 13 12 15 16 16 17 16 16 16 15 15 15 15 14 11 11 12 11 10 10 10 9 10 11 10 10 9 8 8 7 7 6 6 5 5 5 5 5 5 5 5 4 4 5 5 6 5 6 5 5 5 5 5 4 3 4 4 3 4 4 5 8 5 6 6 5 5 5 5 5 5 5 4 3
2 5 3 3 1 1 3 4 6 5 5 6 4 5 3 2 2 2 6 5 6 6 4 9 13 15 18 19 18 16 16 15 16 15 16 16 16 13 11 9 9 9 9 10 11 11 12 11 11 9 9 9 9 7 8 7 7 6 6 6 5 5 6 6 5 5 5 6 6 6 6 6 5 5 4 4 5 4 4 4 4 3 4 4 3 5 5 5 5 4 4 5 6 5 5 4 3
1 2 2 3 3 2 2 4 5 7 3 5 5 3 5 3 1 2 5 6 4 5 3 11 12 15 17 17 17 17 17 16 16 16 16 16 15 13 13 11 11 10 9 9 10 10 11 12 12 10 10 9 10 8 7 6 7 7 6 6 6 6 5 6 6 6 6 6 6 6 6 6 5 5 5 4 5 3 4 4 5 4 3 5 4 3 5 5 4 4 5 6 6 5 5 4 3
2 4 2 4 3 4 5 4 7 5 8 5 4 6 3 6 3 2 3 5 6 5 4 12 13 12 14 16 17 18 17 17 16 15 15 15 15 15 14 13 11 9 9 9 10 9 11 13 12 12 10 10 9 9 8 8 7 7 7 7 7 7 7 6 6 7 7 7 6 6 6 6 5 5 5 5 4 1 3 4 5 5 5 5 5 4 5 5 5 5 4 5 5 4 4 3 3
3 2 3 2 2 3 4 4 5 5 4 3 5 5 4 6 4 5 5 8 4 7 8 13 14 14 13 15 16 16 15 14 13 13 11 10 12 12 11 9 10 10 10 10 10 9 13 12 12 12 11 12 10 9 9 8 7 7 7 7 7 8 7 7 7 7 7 6 6 7 6 6 5 5 5 4 2 2 3 4 5 5 5 5 4 5 5 5 5 5 4 4 4 4 2 5 3
7 7 5 3 3 4 4 4 5 6 2 4 5 4 4 6 4 3 6 4 3 7 11 15 16 16 14 15 15 14 14 15 14 12 14 11 11 14 13 11 10 11 12 10 10 8 11 12 13 13 12 11 10 9 8 7 8 8 8 8 8 8 7 8 7 6 6 6 6 6 7 5 5 6 5 3 3 3 3 4 5 5 5 5 5 5 5 4 5 5 4 3 4 5 4 5 3
10 6 7 7 5 4 3 7 4 5 4 5 4 2 3 4 5 3 5 4 3 7 8 15 15 16 15 14 14 13 14 15 16 10 11 12 12 13 13 13 12 12 11 12 10 9 9 12 13 12 11 10 9 10 8 8 8 8 9 8 7 8 8 7 7 7 6 6 6 6 6 5 5 4 4 3 3 3 4 4 5 5 5 5 5 5 5 3 3 4 4 4 4 5 4 3 3
9 7 3 2 1 1 3 3 5 3 1 5 5 4 2 3 2 4 4 7 8 9 5 11 13 14 14 15 15 13 13 14 12 12 12 16 12 13 13 13 13 12 12 13 11 9 9 12 13 12 11 10 10 10 8 8 8 9 8 7 8 8 7 8 7 7 7 6 6 6 6 5 4 4 4 3 4 4 4 4 5 4 5 5 5 5 5 5 3 4 4 3 3 4 5 2 4
7 9 4 3 1 1 2 6 4 5 2 5 4 2 1 3 5 8 6 8 8 9 7 6 8 12 14 14 13 12 13 13 13 13 13 11 10 11 15 13 13 12 9 13 12 12 11 12 12 12 11 10 10 11 9 9 8 8 8 8 8 8 7 7 7 7 6 6 6 7 6 6 4 5 5 4 4 4 4 4 5 5 5 5 5 5 4 4 4 5 5 4 5 5 5 3 1
5 1 3 3 2 2 7 2 2 5 2 8 5 2 6 10 10 5 7 9 8 8 7 6 5 5 7 7 10 8 10 13 14 14 13 12 11 11 11 13 13 12 9 10 13 14 11 9 10 10 11 11 11 10 9 8 8 8 7 7 7 7 6 6 6 6 6 6 6 6 6 5 5 5 5 4 4 4 3 4 4 4 5 4 3 3 4 4 4 4 5 5 5 4 5 4 4
6 2 3 2 3 3 4 5 5 6 2 8 4 2 5 6 9 7 7 9 11 10 8 7 6 6 6 6 6 8 6 4 11 14 13 14 12 11 11 11 13 13 9 11 15 14 13 11 10 9 11 12 11 10 10 9 8 8 7 6 7 6 6 6 6 5 6 6 6 6 5 5 5 5 4 5 4 4 4 4 3 5 5 4 5 5 4 4 3 4 4 5 4 4 3 4 3
2 4 3 2 4 4 4 4 9 7 1 5 5 3 7 6 7 7 10 8 11 9 8 8 7 7 7 6 7 8 7 5 3 4 13 14 13 11 12 11 11 13 12 11 13 13 14 11 13 11 12 13 12 11 10 9 9 8 7 6 6 6 6 6 6 5 5 5 5 5 5 5 5 5 5 4 5 4 5 4 5 4 4 4 5 5 2 4 4 4 4 2 4 6 4 4 3
0 4 2 3 2 3 2 6 7 7 3 3 8 4 3 3 5 5 10 11 11 9 8 8 8 8 8 7 7 7 8 6 6 5 5 10 11 11 12 13 11 11 11 12 12 13 14 13 14 14 15 14 13 12 10 8 8 8 8 8 7 6 6 6 6 5 5 5 5 5 5 6 5 5 5 5 5 4 4 4 4 4 3 3 4 4 3 4 3 4 5 4 1 4 5 4 6
2 1 4 4 4 1 3 3 4 4 6 3 4 2 6 4 2 9 12 13 11 10 10 9 9 8 8 7 8 9 9 10 12 8 8 8 9 11 11 12 12 12 10 13 13 15 15 14 13 14 14 14 13 12 11 9 9 9 7 7 6 6 7 7 6 5 5 6 5 6 6 6 5 6 6 5 5 5 4 4 4 3 3 4 4 4 5 3 3 2 4 4 3 2 3 4 5
5 3 2 6 1 9 8 3 5 9 5 5 5 7 12 10 3 9 14 12 11 11 11 11 11 10 8 8 8 9 9 11 12 9 8 9 8 6 6 10 11 11 11 12 13 14 13 12 12 12 13 14 13 12 11 10 10 8 7 7 6 6 6 6 7 6 5 5 5 5 6 6 6 6 6 5 5 5 4 4 4 3 2 4 3 3 3 3 3 1 2 4 4 2 3 4 5
5 8 6 4 2 5 3 9 2 17 9 7 7 8 12 12 5 5 8 10 11 9 8 7 9 9 9 9 9 9 10 12 11 11 9 9 7 7 7 8 11 11 11 12 13 14 13 12 11 12 12 13 12 11 10 9 8 7 8 7 6 6 6 6 5 6 5 5 5 6 6 6 6 6 6 6 5 5 4 4 4 4 3 2 2 1 2 3 2 3 4 4 5 4 2 2 3
2 2 1 4 4 4 4 4 4 12 5 9 11 13 8 5 8 10 10 9 7 8 9 10 9 10 10 10 10 11 11 13 10 11 11 10 9 7 8 7 7 10 11 14 13 14 14 13 12 13 11 12 11 10 9 9 9 7 6 9 9 7 6 6 6 6 6 6 6 6 6 7 7 7 6 6 6 5 5 4 4 4 3 2 3 3 3 2 0 1 2 2 3 3 2 3 3
2 2 4 6 3 6 3 7 7 10 8 7 7 7 12 9 5 8 8 9 11 12 12 11 11 11 12 13 12 11 11 3 5 7 8 9 8 8 7 8 9 9 11 14 15 14 14 14 14 13 11 12 12 12 11 10 10 9 8 8 7 6 6 6 7 6 6 6 6 6 6 7 8 7 7 6 6 6 5 5 4 5 3 3 3 3 2 1 0 1 2 4 1 1 2 2 4
3 2 3 3 8 3 5 3 7 7 4 4 6 9 14 11 6 6 11 14 12 13 14 14 13 11 9 10 11 10 7 8 8 9 10 10 11 10 9 11 11 10 8 12 14 13 13 13 12 12 11 13 12 12 11 11 9 8 8 5 7 4 5 7 7 6 6 7 6 7 7 7 8 7 7 7 6 6 6 5 5 4 3 3 2 3 2 3 2 2 2 2 5 2 2 3 3
2 2 1 5 5 4 5 4 6 7 8 5 8 11 5 6 4 10 12 13 10 11 13 11 12 14 12 13 13 11 11 10 11 12 12 11 13 11 11 12 12 10 8 11 12 13 10 10 11 12 13 13 12 12 12 11 11 9 7 6 6 6 5 5 5 6 6 6 7 6 7 8 9 8 8 7 6 6 6 6 5 4 4 3 3 3 3 3 3 3 2 3 1 4 2 3 1
4 2 3 3 5 4 4 2 4 3 6 1 2 3 3 5 2 4 7 7 4 5 7 6 7 9 11 8 7 10 14 12 11 11 11 11 12 13 13 12 11 10 9 12 12 12 9 12 11 12 12 13 12 13 13 10 8 6 5 3 3 3 1 3 5 6 7 6 4 4 6 7 9 9 8 7 7 6 5 5 5 5 4 4 3 4 4 5 4 4 4 3 3 3 4 2 3
4 4 2 3 2 1 3 3 9 3 4 7 5 1 2 4 4 7 7 6 6 4 7 9 9 5 5 8 9 7 7 9 12 13 13 13 13 12 12 13 13 12 10 8 11 11 11 11 11 10 10 11 12 13 13 10 9 9 8 7 7 5 6 5 7 8 7 7 7 6 6 8 8 8 7 7 7 6 6 6 5 5 4 5 4 5 5 3 4 4 4 4 4 4 4 3 3
2 3 1 3 1 1 4 6 5 2 3 4 4 2 1 5 2 6 6 8 10 2 6 8 7 6 6 6 7 9 9 8 6 7 8 9 10 11 13 14 14 13 12 6 8 10 12 12 13 12 11 10 11 11 12 10 9 9 11 11 9 9 8 7 4 6 7 8 5 7 7 7 8 8 8 7 7 7 6 6 6 5 5 5 4 4 4 5 5 5 4 3 5 3 3 4 3
2 4 3 3 5 6 2 1 1 3 4 2 1 4 4 1 7 5 1 2 1 3 1 3 6 5 6 5 7 8 8 9 9 9 9 9 11 13 14 14 13 13 11 8 6 10 12 13 13 12 10 11 11 11 12 11 10 9 9 9 8 9 9 8 6 6 7 7 5 7 7 7 8 8 8 7 8 8 7 6 6 6 6 5 4 5 5 5 5 4 4 4 4 4 5 5 3
4 6 3 5 5 4 3 3 3 2 2 5 7 2 4 1 5 6 5 2 3 4 3 1 5 5 5 6 7 8 9 10 10 9 10 9 11 12 12 12 12 12 11 10 7 7 10 12 13 12 11 11 11 13 13 12 11 10 10 9 8 7 7 7 6 6 7 7 6 6 7 8 8 8 8 8 8 8 7 7 6 6 6 6 4 5 4 4 5 5 5 4 4 5 5 4 2
3 4 5 7 4 3 4 4 1 2 2 4 6 1 1 2 10 6 4 1 4 4 4 4 5 7 6 6 7 8 7 6 8 9 8 7 9 10 11 12 11 12 11 9 6 5 9 10 13 14 12 11 11 13 13 13 12 10 9 9 10 8 6 6 6 6 7 6 7 7 8 7 7 7 7 7 7 7 7 7 7 7 7 7 5 5 4 4 4 5 7 7 5 4 3 3 4
4 4 4 6 6 4 2 1 5 4 0 4 6 3 3 2 7 7 1 3 6 3 2 1 3 4 4 4 6 7 8 8 8 8 7 8 8 8 8 10 11 9 6 8 6 7 9 12 12 14 14 11 12 13 13 13 11 10 10 11 11 10 8 7 6 6 6 4 5 5 6 7 7 8 8 7 8 7 7 7 7 7 7 6 6 5 5 5 5 5 6 6 4 5 5 4 4
1 1 2 6 7 8 5 5 4 3 1 6 5 15 12 7 6 8 6 6 2 2 4 3 4 3 4 5 5 5 6 8 9 8 9 8 7 7 8 10 10 10 12 10 6 7 8 11 12 12 11 12 11 13 13 13 12 11 11 11 11 10 9 8 8 8 7 7 6 5 6 6 6 7 6 7 7 6 6 6 7 6 6 6 6 6 5 6 5 5 5 5 5 5 5 5 5
6 6 7 6 4 5 4 7 4 0 1 2 6 9 11 8 1 4 8 11 10 8 4 5 9 10 10 10 9 6 5 5 5 6 8 7 9 10 10 11 10 10 13 10 8 9 8 10 13 14 12 12 12 13 13 13 12 11 11 11 11 10 9 9 8 8 7 7 7 5 5 6 6 6 7 7 7 7 6 6 6 6 6 6 6 6 6 6 6 6 5 5 6 5 6 6 5
6 4 3 3 2 2 1 2 1 2 7 6 5 15 5 2 2 7 7 8 8 9 10 10 9 7 7 7 6 7 7 8 7 4 5 6 9 10 10 11 11 10 10 10 9 8 9 9 12 14 14 12 11 12 13 13 13 13 12 12 11 10 10 9 8 8 8 7 7 7 7 7 7 8 8 8 8 7 6 7 7 7 7 6 6 6 6 6 5 6 3 4 5 6 4 5 6
1 3 2 3 5 1 2 2 0 1 5 4 2 3 2 4 2 4 3 4 8 8 8 6 7 6 5 6 10 12 11 9 9 8 6 5 6 7 10 11 11 11 11 11 9 9 8 9 11 13 13 12 12 13 12 14 13 13 12 12 11 9 10 9 8 7 7 7 6 7 6 7 7 8 8 7 6 7 7 7 7 7 7 7 6 6 6 6 6 5 3 3 2 3 3 4 4
2 2 6 5 1 6 2 5 5 3 1 3 5 1 0 4 3 1 4 8 10 9 10 10 10 10 12 12 12 9 9 10 9 8 9 10 9 6 7 9 10 10 12 11 12 10 9 9 11 14 15 14 13 13 13 14 14 12 12 12 11 10 8 8 7 6 6 6 7 7 6 7 7 6 6 6 7 7 7 7 7 8 7 7 7 7 6 6 5 6 5 4 3 2 3 3 2
4 6 5 6 4 4 1 1 2 3 4 3 2 3 0 1 1 4 5 6 8 8 7 8 9 6 5 5 7 9 7 7 8 9 8 9 10 8 9 10 10 10 10 12 12 12 11 10 10 12 12 12 13 14 15 14 12 11 11 11 10 9 9 9 9 9 8 5 5 6 7 7 6 6 6 6 6 6 6 7 7 8 7 7 7 7 7 6 6 6 5 4 3 2 3 3 3
1 2 7 3 2 5 3 0 3 4 1 1 3 6 1 0 1 3 7 7 7 5 4 3 2 3 5 6 7 7 9 9 6 6 8 8 7 10 8 11 11 12 12 11 12 9 10 10 10 12 11 12 12 12 12 10 9 10 9 10 10 10 10 10 9 8 7 6 5 5 6 6 6 6 6 6 6 7 6 7 7 7 7 7 8 7 7 7 6 6 5 4 4 3 3 3 3
4 3 3 5 2 5 4 3 1 2 1 1 3 3 2 1 1 2 3 3 3 4 4 6 7 6 7 8 10 9 8 9 10 10 9 9 9 9 9 8 10 10 11 11 10 10 10 9 10 11 12 12 14 11 9 8 11 11 11 12 12 11 9 9 8 8 8 8 8 6 6 6 6 6 7 6 6 7 7 7 7 7 6 7 7 7 6 5 5 5 3 4 3 3 4 4 3
2 4 3 0 4 2 2 1 3 3 2 1 0 2 1 1 3 3 1 1 1 2 3 4 4 3 4 5 7 8 8 8 9 10 9 10 10 10 9 8 7 9 9 9 10 9 10 8 7 10 14 13 12 11 11 12 11 11 10 10 11 10 10 9 9 9 9 10 9 7 6 6 7 6 7 8 8 8 8 8 8 8 7 6 7 7 6 6 5 5 4 4 3 4 4 3 3
9 7 3 2 1 1 1 2 1 1 2 2 1 1 3 5 3 4 3 3 1 1 1 2 4 3 3 4 6 7 6 8 8 9 9 10 11 11 11 8 6 6 7 8 9 10 9 9 10 11 14 14 14 12 12 12 11 11 10 12 12 11 11 9 9 9 10 9 7 7 7 5 4 6 7 8 9 10 9 9 9 7 7 6 6 6 6 6 5 4 5 5 4 4 4 2 2
5 2 3 3 2 4 4 3 4 2 3 1 2 3 3 6 3 6 4 4 3 1 1 3 4 4 5 6 7 5 7 6 7 9 10 10 10 10 10 9 7 3 6 10 9 9 11 12 12 12 12 13 14 12 12 12 11 9 11 12 12 10 10 9 10 10 11 9 7 5 4 3 5 6 7 8 9 9 9 10 9 8 8 7 6 6 5 5 5 4 4 4 4 3 3 2 2
Wind_Direction
142 133 127 140 106 106 83 359 61 301 57 7 302 3 241 17 268 136 124 133 151 235 210 171 121 147 192 180 119 110 49 125 195 136 210 206 137 142 145 141 141 145 149 153 155 155 156 151 151 155 151 145 142 140 138 139 139 138 138 135 133 132 129 127 126 126 125 123 122 122 122 121 121 121 122 123 122 124 124 121 117 114 111 114 115 122 118 115 115 93 71 66 59 43 36 317 24
125 115 119 119 97 110 256 148 112 9 32 65 13 268 313 300 329 183 165 170 152 158 184 128 108 107 106 112 135 135 20 19 331 140 53 122 125 136 148 145 145 149 151 152 151 154 156 153 153 156 151 148 145 143 143 145 142 140 142 140 135 132 130 129 127 126 126 127 126 125 124 125 126 127 129 128 130 130 128 127 126 128 129 129 129 129 125 121 108 87 89 79 50 56 311 304 311
129 130 93 107 100 163 108 113 65 301 74 53 289 233 335 274 247 144 180 198 140 143 154 125 123 95 102 103 56 80 238 32 100 99 110 140 127 164 152 148 146 146 148 150 152 154 154 157 155 156 153 150 149 146 147 147 142 144 145 139 135 133 130 129 129 129 129 129 127 127 129 130 131 132 131 129 129 131 132 127 126 124 122 123 130 129 131 135 131 125 82 37 30 312 303 299 287
122 96 139 136 249 57 77 35 121 126 79 203 319 359 135 291 270 189 226 173 152 149 156 131 75 325 109 70 118 92 102 122 148 133 136 165 160 150 150 147 144 143 144 152 156 153 154 160 158 157 154 155 152 150 150 149 148 151 148 143 140 137 134 134 134 132 130 130 132 132 131 132 134 133 132 133 133 134 136 134 129 128 129 131 147 162 149 150 141 137 34 3 318 296 292 288 293
101 87 110 98 117 350 103 123 119 96 74 240 201 310 243 338 327 279 168 144 146 161 118 103 90 14 104 120 161 149 178 99 139 198 130 137 134 146 147 145 144 146 151 155 155 154 159 161 158 157 156 157 154 154 153 151 154 153 147 144 143 140 139 139 137 136 137 139 139 138 138 141 143 142 140 140 139 137 136 135 134 133 136 141 139 64 164 148 85 7 309 314 302 291 289 290 297
88 91 12 115 145 195 54 41 24 64 37 355 21 294 11 52 309 292 143 152 162 102 113 82 123 143 83 338 99 117 137 149 167 144 145 148 147 147 147 145 145 149 152 154 156 155 162 160 157 156 157 156 157 156 156 155 158 153 148 151 147 144 142 142 139 140 143 141 141 142 141 144 140 137 139 137 138 136 132 133 135 139 148 160 186 217 240 275 293 289 308 294 293 291 290 293 299
147 61 332 26 129 119 117 105 69 100 38 191 150 230 321 67 33 283 162 140 297 104 76 106 117 106 84 102 46 120 169 109 142 150 159 144 144 146 147 147 146 151 152 155 154 155 162 157 157 157 157 157 159 157 157 158 158 153 153 153 149 149 147 144 142 144 143 146 146 145 147 141 135 139 137 137 137 136 136 140 153 161 168 178 206 219 255 247 260 285 292 285 284 287 288 296 300
67 156 266 76 308 57 60 86 75 133 92 324 223 86 308 120 165 323 276 176 147 119 128 131 117 96 75 51 122 169 120 183 102 115 128 139 143 146 149 148 148 152 153 151 153 155 162 158 158 158 159 159 158 159 160 160 158 157 159 156 154 151 149 147 148 146 150 151 149 153 155 151 136 134 135 136 137 137 141 156 165 178 199 208 212 240 260 277 292 286 285 282 283 284 290 294 301
346 91 256 76 31 20 63 85 131 104 121 124 34 326 75 289 296 135 286 269 108 126 144 140 155 81 196 88 81 160 116 110 113 124 137 141 145 149 151 153 150 151 150 149 150 159 162 160 159 160 160 160 160 161 163 162 161 161 162 159 156 155 153 151 151 153 153 152 155 161 161 153 147 145 148 148 145 151 168 174 189 201 212 226 246 249 253 268 273 280 282 281 282 284 290 297 303
338 77 329 103 121 42 233 347 66 78 71 45 112 192 170 174 178 184 204 241 137 135 135 121 101 114 136 108 124 156 129 119 126 131 140 145 147 149 152 155 153 148 147 148 152 159 161 161 161 161 161 161 162 161 164 164 163 165 166 163 160 158 158 157 156 160 159 160 163 164 160 160 160 157 155 159 164 175 183 198 204 221 230 242 251 257 265 269 275 277 279 282 281 287 292 296 300
288 340 152 55 28 33 41 329 58 31 42 45 25 349 297 235 233 225 194 233 133 125 108 105 80 119 119 111 118 115 123 127 136 143 146 147 150 152 153 155 152 149 148 149 153 156 161 161 161 161 162 163 162 163 167 167 166 168 167 167 164 160 163 164 162 164 165 166 171 167 166 168 167 164 170 181 189 191 197 206 216 228 242 242 253 261 268 276 276 281 282 281 284 291 295 300 304
356 325 11 95 84 134 236 22 39 71 352 118 199 213 195 211 88 233 256 182 108 126 138 131 156 130 91 115 127 140 133 137 142 143 148 150 154 152 152 151 149 149 147 148 151 157 159 159 159 163 164 164 164 167 170 170 170 171 170 170 169 167 168 170 169 170 172 173 174 177 177 176 179 187 188 194 206 208 209 216 229 236 241 253 256 267 274 277 280 280 284 284 287 293 296 300 304
132 126 77 78 205 94 204 64 71 107 256 261 212 230 228 185 180 241 225 148 144 132 152 155 140 173 109 137 134 136 144 145 145 148 149 155 153 152 148 144 148 145 147 149 153 160 157 158 160 162 165 166 167 169 173 175 174 175 174 172 174 172 172 174 177 178 178 180 183 185 183 185 193 195 201 206 214 221 221 230 239 244 251 255 263 267 275 279 280 282 284 286 290 294 298 300 302
125 191 121 154 167 126 119 178 94 106 271 252 243 248 272 43 242 219 282 177 156 163 137 135 132 124 94 108 141 154 154 148 147 152 152 151 150 151 144 145 145 146 151 155 159 159 159 159 162 162 167 166 168 171 177 179 177 178 177 176 177 178 179 180 183 185 184 189 192 192 192 196 200 207 215 219 222 227 232 237 243 252 256 260 267 269 274 277 281 285 285 288 293 295 297 299 301
145 215 79 123 43 51 248 93 102 125 239 227 259 207 273 238 267 248 225 144 186 126 123 134 141 122 183 157 171 172 163 151 151 151 148 146 149 145 143 142 143 146 152 160 158 160 162 162 162 164 165 165 171 167 176 183 181 181 180 180 181 182 184 187 189 192 194 196 201 201 201 207 211 219 223 227 232 235 238 244 249 254 259 264 268 271 274 279 281 282 286 288 292 293 295 297 303
155 87 75 96 268 128 213 124 148 127 240 212 231 239 196 230 224 152 233 172 124 137 150 139 192 167 175 186 165 159 155 150 149 142 141 146 146 142 139 143 145 150 157 162 163 165 164 165 164 166 166 169 172 170 174 186 185 184 183 182 183 186 190 192 197 200 201 202 206 210 212 219 226 232 234 239 243 240 244 249 252 257 260 264 267 272 275 277 279 281 283 285 287 289 291 298 300
87 84 51 37 312 136 202 125 127 154 194 207 218 206 182 290 291 257 118 158 185 163 182 146 187 117 167 160 153 147 149 147 145 142 141 144 146 145 144 147 148 153 163 169 168 166 169 170 170 165 169 171 170 169 175 184 193 187 187 186 188 189 193 199 204 207 210 210 212 217 220 223 241 259 263 263 253 248 248 253 254 256 259 264 270 273 275 277 279 281 282 283 283 286 291 297 303
61 103 119 348 201 121 200 162 158 157 149 191 187 215 141 156 204 250 97 232 260 185 196 165 169 94 146 134 145 149 149 150 150 149 150 149 153 152 155 156 155 164 167 169 174 172 171 176 176 170 170 171 170 170 177 182 198 188 169 189 190 192 198 203 210 209 215 221 220 221 231 233 232 244 251 256 251 247 247 251 254 256 260 266 272 275 276 278 280 282 281 281 282 283 287 293 295
119 167 108 242 178 216 144 163 151 125 155 176 186 195 146 173 166 174 129 226 228 195 183 143 116 117 123 140 145 155 155 156 154 157 157 159 162 162 160 159 164 161 169 172 175 179 177 173 177 176 174 171 171 174 178 178 194 169 173 186 190 198 200 208 208 214 223 218 241 240 239 246 240 243 246 248 242 234 230 241 249 255 263 269 274 278 280 281 282 282 284 284 284 283 284 278 285
249 131 308 254 213 195 175 153 160 132 142 144 156 190 148 165 173 144 197 202 186 175 146 124 141 141 146 151 154 158 161 163 159 161 163 166 168 166 163 165 167 172 171 175 174 177 175 177 179 179 177 174 172 178 180 179 184 176 180 188 193 196 204 216 204 216 218 230 233 238 239 242 243 246 255 255 238 216 229 248 258 268 277 278 278 282 287 288 289 294 294 294 290 282 274 271 270
249 115 192 233 201 111 237 159 142 123 130 144 145 154 115 171 210 189 189 111 205 223 176 155 160 154 154 158 163 163 165 168 166 162 166 169 170 170 169 170 171 171 172 169 171 179 179 177 177 182 179 177 177 180 182 186 183 179 185 190 196 198 208 219 214 209 219 228 232 233 235 236 238 241 252 266 285 278 272 272 279 287 287 286 280 283 288 291 307 303 306 302 283 282 278 272 253
120 204 211 190 99 91 220 171 148 127 142 132 146 130 183 144 167 213 161 163 199 201 203 160 155 155 156 162 167 167 170 170 172 165 170 172 171 171 171 173 173 172 168 173 177 177 179 180 180 179 179 181 183 183 186 186 179 189 191 194 195 206 210 216 217 213 220 226 225 228 231 234 237 244 255 265 265 251 250 271 283 292 295 281 290 285 288 294 296 302 302 305 299 282 274 267 257
173 272 223 206 182 147 220 178 154 132 136 141 159 190 119 174 186 208 183 191 228 225 182 157 157 161 161 159 162 171 176 175 177 172 170 174 174 172 174 175 177 180 177 181 175 178 177 180 181 179 181 181 186 186 184 185 190 194 192 193 195 210 211 216 219 219 219 223 224 225 225 230 231 236 245 247 238 234 259 281 278 280 283 273 272 291 303 297 291 299 313 312 303 292 283 279 251
110 229 196 224 175 186 180 182 148 149 134 181 179 141 149 168 166 191 193 239 222 222 193 155 151 153 157 162 172 175 179 180 178 178 174 176 175 175 175 178 179 179 179 180 181 177 180 181 180 180 181 181 185 186 184 189 192 192 198 198 202 209 207 218 221 218 219 224 222 221 223 218 218 227 229 221 231 258 263 270 283 289 292 297 295 296 294 296 311 322 321 319 319 281 275 283 240
218 253 209 226 169 223 197 166 151 154 180 142 135 144 212 178 179 125 239 242 252 222 151 148 147 152 163 167 173 177 181 183 177 175 176 178 177 175 179 181 176 178 184 183 183 177 180 179 178 184 181 183 185 185 188 192 191 197 201 201 204 207 209 215 217 220 219 221 222 223 220 212 210 204 201 214 198 231 260 268 270 275 280 285 299 298 292 299 307 314 315 301 310 296 313 302 292
219 222 185 174 197 199 192 154 159 164 168 137 130 185 221 210 140 185 227 229 241 161 145 152 151 159 166 174 174 176 183 186 185 172 181 177 174 177 181 187 182 185 188 185 182 183 174 175 180 184 183 184 184 185 192 192 194 197 206 206 203 207 211 212 216 220 222 216 222 222 223 204 189 186 195 197 180 233 251 265 267 268 268 282 298 291 285 290 299 316 307 313 320 317 356 338 26
186 200 187 169 213 162 188 166 188 179 175 165 165 191 205 221 166 282 250 197 163 145 150 157 158 165 168 170 177 180 183 187 191 177 172 182 180 180 183 190 191 189 184 189 187 184 174 170 182 183 183 179 183 191 192 197 195 202 208 208 204 209 209 211 216 220 221 218 222 218 219 209 196 183 184 192 208 229 245 246 257 261 275 273 273 278 285 301 301 289 294 303 322 325 337 5 329
175 179 162 212 189 218 140 168 181 139 247 170 149 201 190 209 153 223 219 171 153 144 130 152 168 169 173 172 177 181 187 188 187 188 185 182 187 182 184 188 192 187 184 188 187 184 175 176 179 182 183 178 182 194 194 198 201 204 209 211 211 210 203 210 216 216 219 220 219 213 211 213 194 189 182 196 203 222 237 243 252 261 263 269 267 277 291 284 289 296 293 311 320 320 317 354 287
177 140 156 233 67 216 245 178 201 157 225 166 148 55 233 177 218 223 189 164 151 147 150 132 158 171 175 174 176 181 186 186 188 192 197 189 189 180 189 186 184 191 186 182 183 185 179 179 177 184 185 180 186 194 197 200 203 204 208 215 214 207 202 202 213 214 214 217 213 206 205 206 204 186 195 196 206 210 222 235 248 249 251 263 271 257 274 314 317 320 326 337 327 329 328 338 251
113 94 135 69 53 310 242 272 146 151 232 161 135 227 251 208 222 218 169 161 148 145 156 151 138 135 141 148 172 173 175 184 189 192 191 191 192 192 188 189 187 189 184 177 181 186 181 179 180 182 188 187 191 196 199 201 204 207 211 218 219 212 210 206 213 217 208 205 204 203 200 204 202 200 189 204 208 214 228 227 235 250 251 243 268 282 288 292 307 323 309 330 318 327 311 310 335
176 184 62 144 112 253 245 203 160 158 195 156 113 234 276 251 221 200 181 163 155 163 169 156 151 145 148 153 153 173 184 186 195 190 190 188 191 193 194 187 188 190 181 178 184 185 184 174 179 184 187 192 190 196 202 206 204 209 209 211 217 215 214 212 215 209 203 197 193 200 199 203 205 204 200 195 208 214 226 234 248 254 263 273 274 275 270 288 294 284 300 315 313 311 311 318 311
147 88 275 301 163 268 281 247 160 174 209 136 106 285 242 253 236 179 174 166 161 165 171 165 164 161 161 165 164 176 192 186 238 234 195 191 188 195 196 194 185 190 186 181 182 180 186 179 178 182 186 192 194 196 202 205 206 210 213 210 211 218 215 212 213 196 191 183 189 194 202 205 207 208 206 201 211 218 222 227 233 257 266 273 271 278 285 276 287 303 289 270 309 307 330 315 320
355 136 240 232 131 235 358 252 203 175 110 129 171 216 314 281 237 166 171 168 167 164 171 171 171 170 168 171 173 176 182 206 222 224 273 191 187 193 198 201 195 189 186 180 177 180 184 186 175 183 185 191 194 197 200 204 206 208 214 218 213 213 217 214 217 196 177 181 190 197 203 206 210 208 209 205 206 215 222 227 249 251 264 254 256 257 250 243 254 292 300 304 286 279 314 306 304
258 61 205 212 156 185 236 302 187 192 137 196 208 224 249 255 238 166 177 174 166 168 175 174 174 175 177 174 174 180 186 195 207 209 210 230 197 204 200 200 200 200 183 183 177 180 184 187 179 183 182 187 190 194 197 200 204 207 212 215 218 213 216 213 205 195 186 188 191 200 201 207 208 209 209 208 213 219 213 216 247 270 275 253 248 247 248 270 286 264 287 288 291 301 303 304 292
196 222 260 298 161 185 202 164 228 149 209 183 186 228 261 270 273 175 181 180 168 176 177 178 179 176 177 179 181 185 187 194 209 207 200 217 218 235 214 199 213 211 200 184 183 184 184 185 183 184 176 183 187 190 194 197 200 206 214 215 207 207 210 209 196 195 197 195 201 204 205 209 210 210 210 208 213 221 216 221 242 257 277 290 262 222 254 293 311 313 270 296 299 258 238 261 267
214 177 188 225 237 201 228 228 174 166 185 203 183 211 236 243 237 202 185 181 173 182 178 180 184 179 179 184 183 185 194 203 203 200 192 202 220 225 225 212 218 214 202 192 185 188 188 186 184 187 180 180 182 186 188 194 192 196 207 222 216 203 206 204 204 203 203 203 207 205 208 212 213 208 209 207 213 215 211 216 234 259 257 238 235 186 257 271 309 341 333 331 323 321 302 262 279
239 127 157 284 282 265 248 247 190 178 139 209 202 225 240 255 205 198 188 181 179 167 182 189 189 184 188 190 188 191 194 205 198 196 192 191 211 223 227 225 239 224 201 197 191 189 189 187 184 189 183 178 177 181 187 190 194 199 205 208 212 203 199 201 206 208 208 214 214 210 204 212 213 211 207 201 210 216 212 218 226 256 262 236 227 225 226 251 188 223 303 327 306 328 317 323 335
46 351 338 301 309 276 212 217 179 177 153 229 215 233 256 242 228 199 186 175 194 184 189 193 193 192 190 189 192 192 199 159 166 191 193 186 199 209 219 232 230 229 196 191 190 187 189 189 187 186 179 181 181 182 185 191 194 196 193 200 199 191 190 195 212 215 214 220 216 210 203 211 211 208 205 199 204 203 209 210 220 236 252 272 254 234 207 216 165 319 348 329 266 308 287 291 310
338 286 266 357 289 233 292 263 136 160 140 275 206 216 241 244 215 207 185 193 200 192 187 192 187 193 197 197 192 188 176 186 181 192 188 191 197 202 210 223 228 225 208 193 189 183 184 189 188 182 180 181 184 183 182 191 195 195 190 182 189 185 196 198 204 212 217 224 218 204 200 202 206 209 204 196 197 203 206 205 219 228 239 245 265 274 258 258 243 268 283 255 305 298 271 271 270
286 332 1 258 268 5 306 302 119 160 166 211 208 200 284 316 230 205 200 193 203 193 192 192 186 184 191 197 190 183 189 183 188 189 192 194 194 196 206 216 220 221 219 205 196 192 185 185 182 177 180 180 182 185 187 191 191 189 188 172 178 178 181 198 207 219 225 228 231 214 202 196 197 204 200 196 201 200 198 206 214 221 237 231 223 234 241 243 260 282 270 253 204 303 325 304 288
289 168 168 243 280 243 184 258 104 131 252 20 76 63 315 341 100 199 237 230 211 200 181 205 210 199 196 193 187 185 185 188 189 193 197 194 198 199 201 209 211 215 220 208 200 196 195 188 180 173 175 179 181 184 186 183 178 173 175 169 156 186 216 191 209 226 228 228 214 205 203 198 197 199 197 197 199 199 196 200 204 214 223 236 219 219 227 224 218 218 225 242 243 229 283 290 311
305 256 219 239 220 350 30 94 118 148 269 258 157 17 299 297 300 203 195 207 228 198 167 209 211 187 154 181 191 193 205 194 185 191 195 195 197 197 200 204 211 215 214 212 206 196 193 188 179 174 174 176 181 182 181 175 178 177 174 182 200 202 212 204 208 219 228 231 218 199 198 196 197 198 196 199 199 194 196 198 200 208 218 226 218 226 225 223 227 229 232 223 251 228 227 281 293
47 269 289 253 310 100 70 109 84 118 207 267 164 153 260 325 215 221 196 197 215 190 191 210 210 195 183 187 184 189 191 196 205 197 197 199 199 197 200 202 207 214 214 207 207 195 188 183 179 176 173 176 178 178 177 175 178 183 187 194 200 204 212 224 207 215 222 231 205 191 196 194 197 196 199 196 197 198 196 198 202 207 215 213 213 213 219 217 222 224 237 221 229 234 187 222 237
288 238 223 345 359 341 342 52 127 226 239 311 49 131 136 243 270 230 40 51 253 260 199 223 214 201 194 186 192 193 194 193 190 193 194 197 190 192 198 200 200 206 205 207 210 196 187 182 178 178 175 175 177 173 177 179 180 184 188 196 199 205 210 216 205 216 222 223 201 197 191 195 196 199 197 196 196 197 197 201 201 206 210 214 203 205 217 228 230 243 229 221 238 207 192 200 238
238 281 323 318 303 303 285 274 266 260 41 316 323 56 63 268 281 34 53 70 277 283 263 283 233 222 193 189 196 202 201 194 188 189 194 190 189 195 196 198 201 201 199 203 215 192 182 182 179 176 176 176 177 174 178 184 184 184 187 191 201 209 208 210 206 212 217 215 206 198 193 194 194 199 198 196 198 197 197 199 200 203 207 216 208 202 214 226 230 242 248 237 231 227 213 212 176
282 266 333 313 326 285 255 222 170 336 74 279 284 56 120 328 327 349 354 315 274 248 245 241 227 211 196 194 205 207 210 206 202 198 197 196 196 201 200 197 196 200 202 203 210 172 174 179 179 178 178 178 177 178 180 183 185 182 187 195 201 208 205 212 206 215 217 198 203 193 194 190 193 196 200 197 196 200 200 198 198 201 204 206 209 208 212 228 235 235 238 231 219 230 230 215 203
246 344 328 325 338 311 347 108 113 54 34 261 248 344 124 63 345 319 98 224 233 191 264 220 201 204 226 223 208 203 205 204 202 202 199 200 200 203 198 201 203 192 216 218 206 174 168 177 180 181 179 178 176 179 180 184 185 185 192 196 202 206 208 202 208 224 226 200 195 187 192 201 193 195 195 202 197 194 199 198 198 201 199 199 204 204 221 230 237 233 235 222 220 218 237 224 231
165 63 67 5 329 360 31 351 43 91 273 265 48 76 64 85 318 354 320 325 359 191 131 110 138 166 221 229 214 218 216 207 207 203 203 195 188 195 197 206 206 185 196 220 200 183 169 170 172 179 179 178 177 180 181 184 185 190 194 194 200 206 204 207 204 211 216 220 208 197 195 189 201 196 196 200 205 198 191 194 196 193 193 195 201 207 220 228 238 236 236 228 227 225 232 236 239
60 69 41 85 304 34 349 5 30 155 172 251 173 101 60 61 167 285 342 4 16 39 57 71 45 29 27 26 22 16 347 304 259 226 204 196 193 188 195 203 201 195 195 200 197 191 178 169 169 175 181 182 181 179 182 183 186 191 194 197 202 202 201 205 205 207 212 212 213 195 178 192 193 192 200 203 208 204 193 192 192 190 194 196 200 208 221 226 234 236 235 233 232 228 223 220 219
38 55 74 72 41 40 29 278 247 328 304 260 73 85 102 209 354 357 9 4 23 46 54 54 54 39 25 21 23 22 20 21 0 311 273 228 200 195 196 197 198 199 197 193 196 200 187 173 173 175 181 180 180 182 183 184 190 193 195 197 201 198 201 200 202 206 208 210 205 204 187 187 190 196 196 205 202 202 199 197 193 194 193 195 199 208 220 225 227 233 229 238 238 234 227 225 225
291 167 131 173 146 157 257 219 132 217 222 295 339 56 192 109 217 293 336 23 36 37 44 49 50 47 35 20 17 13 14 11 4 355 348 321 276 221 195 195 198 199 194 193 194 195 194 174 175 178 178 180 178 183 183 187 191 194 195 198 200 200 203 202 202 202 204 206 211 206 198 187 189 196 198 202 195 196 199 193 193 194 197 200 200 209 220 227 233 233 192 199 214 200 184 200 224
278 154 103 63 224 143 162 201 153 220 310 8 8 107 113 141 202 321 349 28 31 23 25 25 24 23 14 10 8 11 4 354 351 351 344 331 321 264 232 201 198 198 195 190 192 191 191 185 179 181 181 180 180 182 186 187 191 191 193 197 200 200 204 207 211 210 211 209 211 210 201 194 193 191 201 197 202 197 198 197 198 204 201 201 202 206 213 217 220 212 204 186 193 192 132 142 183
276 8 318 244 187 121 89 355 3 53 50 66 159 76 97 224 30 21 350 35 30 24 15 17 10 14 26 17 359 351 356 352 344 340 334 323 321 300 226 215 201 196 193 193 193 189 188 182 181 183 183 180 181 186 188 188 187 187 194 198 198 200 203 207 212 218 220 218 216 218 205 195 192 189 199 206 207 203 202 199 200 208 206 207 207 210 214 216 208 206 200 203 229 206 141 159 168
80 332 258 296 74 116 117 197 328 64 84 216 167 142 200 50 253 340 360 28 8 10 353 343 340 358 15 8 356 352 343 336 326 312 314 311 304 312 271 222 206 196 192 194 192 182 173 187 186 182 176 180 187 187 184 178 178 188 196 200 201 201 204 209 212 218 223 222 221 220 219 198 191 194 201 211 206 204 207 207 206 209 208 206 210 211 213 213 197 196 187 187 216 192 160 163 180
9 262 218 65 313 5 319 85 7 350 329 253 25 72 101 161 218 339 339 11 344 342 340 348 354 10 5 0 348 343 345 343 336 334 329 319 316 310 311 261 222 209 195 192 189 176 174 184 188 158 165 196 190 182 157 168 185 188 193 198 199 201 203 205 207 211 213 221 218 210 214 214 209 196 198 207 207 207 204 205 205 209 205 207 209 212 206 198 189 187 184 200 224 186 181 196 216
13 7 15 346 104 165 359 191 180 122 247 57 305 55 196 215 210 199 207 260 277 316 338 342 329 353 20 349 334 333 343 341 328 324 321 311 305 303 299 301 242 204 194 185 185 183 177 171 170 177 179 188 190 176 162 179 187 195 198 195 198 200 199 199 201 201 209 215 217 211 205 211 219 211 204 207 208 209 203 202 205 206 203 202 205 210 199 199 191 185 183 199 193 168 174 204 251
330 2 328 354 346 208 138 12 78 171 176 159 166 327 265 258 217 192 207 216 223 196 359 319 325 343 6 338 323 333 340 336 324 319 313 309 305 306 306 308 286 209 187 175 179 182 170 170 170 172 178 187 190 183 174 187 189 194 191 194 199 198 199 196 199 202 209 213 213 216 216 213 204 216 207 204 206 207 204 200 199 199 195 198 202 206 203 195 190 187 190 183 171 159 155 192 192
259 242 274 281 57 14 50 290 340 68 88 182 126 237 262 265 192 194 193 219 198 164 77 354 329 356 344 328 327 334 340 325 323 315 316 310 303 302 306 309 320 190 174 182 175 150 168 181 184 173 178 186 192 185 184 190 198 186 190 198 201 199 196 194 195 200 205 206 205 209 217 228 230 226 205 202 197 196 198 193 193 186 192 194 197 200 203 186 187 188 193 193 174 148 129 130 122